Météo par heure à Judziki

Ce jour, 20 Juin, Dimanche

Heure Température Précipitation Vent Pression Humidité
00:00 +20°C° 0 mm 2 m/s 752 mmHg 88%
01:00 +19°C° 0 mm 2 m/s 752 mmHg 89%
02:00 +18°C° 0 mm 2 m/s 752 mmHg 90%
03:00 +18°C° 0 mm 2 m/s 751 mmHg 90%
04:00 +18°C° 0 mm 2 m/s 751 mmHg 91%
05:00 +18°C° 0 mm 2 m/s 751 mmHg 91%
06:00 +20°C° 0 mm 3 m/s 751 mmHg 85%
07:00 +22°C° 0 mm 3 m/s 751 mmHg 78%
08:00 +25°C° 0 mm 3 m/s 751 mmHg 72%
09:00 +26°C° 0 mm 4 m/s 751 mmHg 68%
10:00 +27°C° 0 mm 4 m/s 751 mmHg 63%
11:00 +29°C° 0 mm 4 m/s 751 mmHg 59%
12:00 +29°C° 0.2 mm 4 m/s 751 mmHg 57%
13:00 +30°C° 0.2 mm 4 m/s 750 mmHg 55%
14:00 +30°C° 0.2 mm 4 m/s 750 mmHg 53%
15:00 +30°C° 0 mm 4 m/s 750 mmHg 55%
16:00 +30°C° 0 mm 4 m/s 750 mmHg 56%
17:00 +30°C° 0 mm 4 m/s 749 mmHg 58%
18:00 +28°C° 0.2 mm 4 m/s 749 mmHg 65%
19:00 +27°C° 0.2 mm 3 m/s 749 mmHg 72%
20:00 +25°C° 0.2 mm 3 m/s 749 mmHg 79%
21:00 +24°C° 0.1 mm 3 m/s 749 mmHg 83%
22:00 +23°C° 0.1 mm 2 m/s 749 mmHg 87%
23:00 +21°C° 0.1 mm 2 m/s 749 mmHg 91%

Demain, 21 Juin, Lundi

Heure Température Précipitation Vent Pression Humidité
00:00 +21°C° 0 mm 2 m/s 749 mmHg 92%
01:00 +20°C° 0 mm 3 m/s 749 mmHg 93%
02:00 +20°C° 0 mm 3 m/s 749 mmHg 94%
03:00 +20°C° 0 mm 3 m/s 749 mmHg 94%
04:00 +19°C° 0 mm 3 m/s 748 mmHg 94%
05:00 +19°C° 0 mm 2 m/s 748 mmHg 94%
06:00 +21°C° 0 mm 3 m/s 748 mmHg 88%
07:00 +22°C° 0 mm 4 m/s 748 mmHg 82%
08:00 +25°C° 0 mm 4 m/s 748 mmHg 76%
09:00 +26°C° 0 mm 5 m/s 748 mmHg 69%
10:00 +27°C° 0 mm 5 m/s 748 mmHg 63%
11:00 +28°C° 0 mm 5 m/s 748 mmHg 56%
12:00 +29°C° 0 mm 5 m/s 748 mmHg 55%
13:00 +29°C° 0 mm 5 m/s 748 mmHg 53%
14:00 +30°C° 0 mm 5 m/s 747 mmHg 52%
15:00 +29°C° 0.1 mm 5 m/s 747 mmHg 57%
16:00 +28°C° 0.1 mm 4 m/s 747 mmHg 63%
17:00 +27°C° 0.1 mm 4 m/s 747 mmHg 69%
18:00 +26°C° 0.2 mm 4 m/s 746 mmHg 73%
19:00 +25°C° 0.2 mm 3 m/s 746 mmHg 76%
20:00 +24°C° 0.2 mm 3 m/s 746 mmHg 80%
21:00 +22°C° 0.1 mm 3 m/s 746 mmHg 84%
22:00 +21°C° 0.1 mm 3 m/s 746 mmHg 88%
23:00 +20°C° 0.1 mm 3 m/s 747 mmHg 91%

Après-demain, 22 Juin, Mardi

Heure Température Précipitation Vent Pression Humidité
00:00 +20°C° 0 mm 3 m/s 746 mmHg 92%
01:00 +20°C° 0 mm 3 m/s 746 mmHg 93%
02:00 +19°C° 0 mm 2 m/s 746 mmHg 94%
03:00 +19°C° 0 mm 2 m/s 746 mmHg 94%
04:00 +19°C° 0 mm 2 m/s 746 mmHg 94%
05:00 +19°C° 0 mm 2 m/s 746 mmHg 94%
06:00 +21°C° 0 mm 3 m/s 746 mmHg 89%
07:00 +24°C° 0 mm 3 m/s 747 mmHg 83%
08:00 +25°C° 0 mm 4 m/s 747 mmHg 77%
09:00 +26°C° 0 mm 4 m/s 747 mmHg 72%
10:00 +28°C° 0 mm 4 m/s 747 mmHg 67%
11:00 +29°C° 0 mm 4 m/s 747 mmHg 61%
12:00 +29°C° 0.4 mm 4 m/s 747 mmHg 62%
13:00 +29°C° 0.4 mm 4 m/s 747 mmHg 62%
14:00 +29°C° 0.4 mm 4 m/s 747 mmHg 62%
15:00 +28°C° 1.1 mm 3 m/s 747 mmHg 68%
16:00 +27°C° 1.1 mm 3 m/s 748 mmHg 75%
17:00 +26°C° 1.1 mm 3 m/s 748 mmHg 81%
18:00 +25°C° 0.7 mm 2 m/s 748 mmHg 85%
19:00 +24°C° 0.7 mm 2 m/s 748 mmHg 89%
20:00 +23°C° 0.7 mm 2 m/s 748 mmHg 92%
21:00 +21°C° 0.1 mm 2 m/s 748 mmHg 93%
22:00 +22°C° 0.1 mm 1 m/s 749 mmHg 93%
23:00 +21°C° 0.1 mm 1 m/s 749 mmHg 93%

23 Juin, Mercredi

Heure Température Précipitation Vent Pression Humidité
00:00 +20°C° 0.1 mm 2 m/s 749 mmHg 94%
01:00 +19°C° 0.1 mm 2 m/s 749 mmHg 95%
02:00 +19°C° 0.1 mm 2 m/s 749 mmHg 96%
03:00 +19°C° 0 mm 2 m/s 749 mmHg 96%
04:00 +19°C° 0 mm 2 m/s 749 mmHg 97%
05:00 +19°C° 0 mm 2 m/s 749 mmHg 97%
06:00 +20°C° 0 mm 2 m/s 749 mmHg 93%
07:00 +23°C° 0 mm 2 m/s 749 mmHg 88%
08:00 +24°C° 0 mm 2 m/s 750 mmHg 84%
09:00 +26°C° 0.1 mm 2 m/s 750 mmHg 79%
10:00 +27°C° 0.1 mm 2 m/s 749 mmHg 73%
11:00 +29°C° 0.1 mm 2 m/s 749 mmHg 67%
12:00 +30°C° 0.6 mm 2 m/s 749 mmHg 65%
13:00 +30°C° 0.6 mm 2 m/s 749 mmHg 64%
14:00 +31°C° 0.6 mm 3 m/s 749 mmHg 62%
15:00 +31°C° 0.6 mm 2 m/s 749 mmHg 63%
16:00 +31°C° 0.6 mm 2 m/s 749 mmHg 64%
17:00 +31°C° 0.6 mm 2 m/s 749 mmHg 65%
18:00 +29°C° 0.5 mm 2 m/s 749 mmHg 70%
19:00 +28°C° 0.5 mm 1 m/s 749 mmHg 75%
20:00 +27°C° 0.5 mm 1 m/s 749 mmHg 79%
21:00 +26°C° 0.7 mm 1 m/s 749 mmHg 83%
22:00 +24°C° 0.7 mm 1 m/s 750 mmHg 86%
23:00 +23°C° 0.7 mm 1 m/s 750 mmHg 89%

24 Juin, Jeudi

Heure Température Précipitation Vent Pression Humidité
00:00 +23°C° 0.7 mm 1 m/s 750 mmHg 90%
01:00 +22°C° 0.7 mm 1 m/s 750 mmHg 91%
02:00 +22°C° 0.7 mm 1 m/s 750 mmHg 92%
03:00 +20°C° 0.1 mm 2 m/s 750 mmHg 93%
04:00 +20°C° 0.1 mm 2 m/s 750 mmHg 93%
05:00 +20°C° 0.1 mm 2 m/s 750 mmHg 94%
06:00 +21°C° 0 mm 2 m/s 750 mmHg 92%
07:00 +22°C° 0 mm 3 m/s 750 mmHg 89%
08:00 +24°C° 0 mm 3 m/s 751 mmHg 87%
09:00 +25°C° 0 mm 3 m/s 751 mmHg 81%
10:00 +27°C° 0 mm 3 m/s 751 mmHg 75%
11:00 +28°C° 0 mm 2 m/s 751 mmHg 69%
12:00 +28°C° 0 mm 3 m/s 751 mmHg 65%
13:00 +29°C° 0 mm 3 m/s 751 mmHg 60%
14:00 +30°C° 0 mm 3 m/s 751 mmHg 56%
15:00 +29°C° 0 mm 2 m/s 751 mmHg 55%
16:00 +29°C° 0 mm 2 m/s 751 mmHg 54%
17:00 +29°C° 0 mm 2 m/s 751 mmHg 54%
18:00 +28°C° 0 mm 2 m/s 751 mmHg 62%
19:00 +26°C° 0 mm 2 m/s 751 mmHg 69%
20:00 +25°C° 0 mm 2 m/s 750 mmHg 77%
21:00 +23°C° 0 mm 2 m/s 750 mmHg 83%
22:00 +21°C° 0 mm 3 m/s 750 mmHg 88%
23:00 +19°C° 0 mm 3 m/s 751 mmHg 94%

25 Juin, Vendredi

Heure Température Précipitation Vent Pression Humidité
00:00 +19°C° 0 mm 3 m/s 750 mmHg 94%
01:00 +18°C° 0 mm 3 m/s 750 mmHg 95%
02:00 +18°C° 0 mm 3 m/s 750 mmHg 95%
03:00 +17°C° 0.4 mm 3 m/s 750 mmHg 95%
04:00 +17°C° 0.4 mm 2 m/s 750 mmHg 96%
05:00 +17°C° 0.4 mm 2 m/s 749 mmHg 96%
06:00 +18°C° 0.8 mm 3 m/s 749 mmHg 95%
07:00 +18°C° 0.8 mm 3 m/s 748 mmHg 95%
08:00 +19°C° 0.8 mm 4 m/s 748 mmHg 95%
09:00 +20°C° 0 mm 3 m/s 748 mmHg 91%
10:00 +23°C° 0 mm 2 m/s 748 mmHg 88%
11:00 +24°C° 0 mm 1 m/s 749 mmHg 84%
12:00 +25°C° 0.3 mm 1 m/s 748 mmHg 81%
13:00 +26°C° 0.3 mm 2 m/s 748 mmHg 77%
14:00 +27°C° 0.3 mm 2 m/s 748 mmHg 73%
15:00 +26°C° 0.5 mm 3 m/s 748 mmHg 76%
16:00 +26°C° 0.5 mm 3 m/s 748 mmHg 79%
17:00 +25°C° 0.5 mm 3 m/s 748 mmHg 82%
18:00 +22°C° 0.3 mm 4 m/s 748 mmHg 85%
19:00 +21°C° 0.3 mm 5 m/s 749 mmHg 88%
20:00 +19°C° 0.3 mm 6 m/s 749 mmHg 91%
21:00 +17°C° 0 mm 5 m/s 749 mmHg 90%
22:00 +16°C° 0 mm 5 m/s 750 mmHg 89%
23:00 +15°C° 0 mm 4 m/s 750 mmHg 89%
Voir plus

Nous avons besoin de votre consentement

Meteoprog et ses fournisseurs de services peuvent stocker et accéder à des données personnelles telles que des cookies, des identifiants d'appareils ou d'autres technologies similaires sur votre appareil et traiter ces données pour personnaliser le contenu et les publicités, ainsi que pour fournir des fonctionnalités de médias sociaux et analyser le trafic.

  • Stocker et/ou accéder à des informations sur votre appareil

    Des cookies, des identifiants d'appareils ou d'autres informations peuvent être stockés ou accessibles sur votre appareil aux fins indiquées ci-dessus.

  • Annonces et contenus personnalisés, mesure des annonces et des contenus, connaissance de l'audience et développement de produits

    Les annonces et le contenu peuvent être personnalisés en fonction d'un profil. D'autres données peuvent être ajoutées pour mieux personnaliser les annonces et le contenu. Les performances des publicités et du contenu peuvent être mesurées. Il est possible d'obtenir des informations sur le public qui a vu les publicités et le contenu. Ces données peuvent être utilisées pour développer ou améliorer l'expérience de l'utilisateur, les systèmes et les logiciels.

En cliquant sur "J'accepte", vous autorisez l'utilisation de cookies, des identifiants d'appareils, des balises web ou d'autres technologies similaires. Vos paramètres peuvent être modifiés dans le navigateur de votre appareil.

Dans certains cas, des intérêts légitimes peuvent être invoqués plutôt qu'un consentement. Vous pouvez en savoir plus à ce sujet dans notre Politique de confidentialité et de cookies.